DW9979 Weather Reports


Display with metric or nautical units.
time (UTC)temp
F
wind
direction
speed
MPH
gust
MPH
rain 1hr
in
rain 24hr
in
rain mn
in
humidity
%
barometer
mb
20191114013331 26 198 0.0 2.0 0.00 0.00 0.00 76 993.5
20191114012830 26 198 0.0 2.0 0.00 0.00 0.00 76 993.6
20191114012329 26 198 0.0 3.0 0.00 0.00 0.00 76 993.5
20191114011824 26 198 0.0 3.0 0.00 0.00 0.00 76 993.4
20191114011321 26 198 1.0 4.0 0.00 0.00 0.00 76 993.4
20191114010821 26 198 1.0 4.0 0.00 0.00 0.00 76 993.5
20191114010322 26 221 1.0 4.0 0.00 0.00 0.00 76 993.4
20191114005821 26 176 1.0 4.0 0.00 0.00 0.00 76 993.2
20191114005321 26 224 1.0 4.0 0.00 0.00 0.00 76 993.2
20191114004821 26 213 1.0 4.0 0.00 0.00 0.00 76 993.2
20191114004318 26 232 2.0 5.0 0.00 0.00 0.00 76 993.2
20191114003811 26 243 2.0 5.0 0.00 0.00 0.00 76 993.2
20191114003307 26 240 2.0 5.0 0.00 0.00 0.00 76 993.2
20191114002807 26 207 2.0 5.0 0.00 0.00 0.00 76 993.0
20191114002307 26 168 2.0 5.0 0.00 0.00 0.00 75 993.1
20191114001807 26 207 2.0 5.0 0.00 0.00 0.00 75 993.0
20191114001307 26 189 2.0 5.0 0.00 0.00 0.00 75 993.0
20191114000808 26 184 2.0 5.0 0.00 0.00 0.00 75 993.0
20191114000303 26 206 2.0 5.0 0.00 0.00 0.00 74 992.9
20191113235803 26 207 2.0 6.0 0.00 0.00 0.00 74 992.9
20191113235303 26 147 3.0 9.0 0.00 0.00 0.00 73 992.9
20191113234804 26 243 3.0 9.0 0.00 0.00 0.00 73 992.8
20191113234303 26 169 2.0 8.0 0.00 0.00 0.00 72 992.7
20191113233805 26 173 2.0 8.0 0.00 0.00 0.00 72 992.7
20191113233304 26 182 3.0 8.0 0.00 0.00 0.00 71 992.6
20191113232803 26 200 3.0 8.0 0.00 0.00 0.00 71 992.5
20191113232304 26 184 3.0 6.0 0.00 0.00 0.00 69 992.6
20191113231804 26 163 3.0 8.0 0.00 0.00 0.00 68 992.5
20191113231304 26 211 3.0 10.0 0.00 0.00 0.00 68 992.5
20191113230801 27 185 4.0 10.0 0.00 0.00 0.00 67 992.4
20191113230301 27 213 4.0 10.0 0.00 0.00 0.00 65 992.5
20191113225802 27 164 4.0 10.0 0.00 0.00 0.00 63 992.4
20191113225301 28 198 3.0 9.0 0.00 0.00 0.00 60 992.5
20191113224801 28 144 2.0 7.0 0.00 0.00 0.00 59 992.4
20191113224301 28 198 2.0 7.0 0.00 0.00 0.00 58 992.4
20191113223801 28 244 2.0 7.0 0.00 0.00 0.00 57 992.3
20191113223301 28 227 2.0 7.0 0.00 0.00 0.00 57 992.3
20191113222801 28 233 2.0 7.0 0.00 0.00 0.00 57 992.4
20191113222257 28 170 1.0 3.0 0.00 0.00 0.00 57 992.4
20191113221753 28 193 2.0 5.0 0.00 0.00 0.00 57 992.4
20191113221254 28 165 3.0 8.0 0.00 0.00 0.00 56 992.3
20191113220753 28 224 3.0 8.0 0.00 0.00 0.00 57 992.4
20191113220254 28 202 3.0 8.0 0.00 0.00 0.00 56 992.5
20191113215753 28 186 3.0 7.0 0.00 0.00 0.00 56 992.4
20191113215246 28 140 3.0 7.0 0.00 0.00 0.00 57 992.4
20191113214745 28 197 2.0 5.0 0.00 0.00 0.00 57 992.3
20191113214244 28 190 2.0 5.0 0.00 0.00 0.00 57 992.3
20191113213742 28 208 2.0 8.0 0.00 0.00 0.00 57 992.3
20191113213240 28 194 3.0 7.0 0.00 0.00 0.00 57 992.4
20191113212734 28 178 3.0 8.0 0.00 0.00 0.00 57 992.3
20191113212234 28 219 3.0 7.0 0.00 0.00 0.00 56 992.3
20191113211734 28 198 3.0 7.0 0.00 0.00 0.00 57 992.3
20191113211232 28 193 2.0 6.0 0.00 0.00 0.00 56 992.3
20191113210733 27 199 2.0 7.0 0.00 0.00 0.00 56 992.4
20191113210232 27 177 3.0 8.0 0.00 0.00 0.00 56 992.4
20191113205728 27 181 3.0 9.0 0.00 0.00 0.00 56 992.4
20191113205227 27 224 3.0 9.0 0.00 0.00 0.00 56 992.6
20191113204728 27 192 3.0 8.0 0.00 0.00 0.00 56 992.5
20191113204227 27 173 3.0 7.0 0.00 0.00 0.00 56 992.5
20191113203728 27 202 3.0 10.0 0.00 0.00 0.00 56 992.4
20191113203226 27 230 4.0 12.0 0.00 0.00 0.00 56 992.3
20191113202720 27 210 4.0 12.0 0.00 0.00 0.00 55 992.4
20191113202220 27 203 3.0 8.0 0.00 0.00 0.00 56 992.3
20191113201721 27 211 3.0 7.0 0.00 0.00 0.00 56 992.2
20191113201221 27 220 5.0 11.0 0.00 0.00 0.00 55 992.3
20191113200721 27 167 4.0 11.0 0.00 0.00 0.00 55 992.3
20191113200222 27 186 4.0 9.0 0.00 0.00 0.00 55 992.3
20191113195715 26 186 4.0 12.0 0.00 0.00 0.00 55 992.2
20191113195213 26 225 3.0 12.0 0.00 0.00 0.00 56 992.2
20191113194712 26 165 3.0 7.0 0.00 0.00 0.00 58 992.1
20191113194213 26 146 4.0 11.0 0.00 0.00 0.00 58 992.4
20191113193712 26 156 4.0 11.0 0.00 0.00 0.00 58 992.3
20191113193211 26 203 4.0 9.0 0.00 0.00 0.00 58 992.1
20191113192704 25 153 4.0 9.0 0.00 0.00 0.00 58 992.4
20191113192204 25 171 4.0 9.0 0.00 0.00 0.00 57 992.3
20191113191704 25 170 5.0 10.0 0.00 0.00 0.00 57 992.4
20191113191205 25 194 5.0 10.0 0.00 0.00 0.00 58 992.4
20191113190705 25 159 5.0 10.0 0.00 0.00 0.00 57 992.4
20191113190206 25 185 4.0 10.0 0.00 0.00 0.00 57 992.5
20191113185658 25 155 4.0 12.0 0.00 0.00 0.00 57 992.7
20191113185159 25 172 4.0 12.0 0.00 0.00 0.00 57 992.6
20191113184659 25 207 5.0 12.0 0.00 0.00 0.00 57 992.6
20191113184158 24 237 6.0 12.0 0.00 0.00 0.00 57 992.6
20191113183658 24 101 5.0 11.0 0.00 0.00 0.00 57 992.7
20191113183158 24 177 5.0 10.0 0.00 0.00 0.00 57 992.7
20191113182654 24 117 5.0 10.0 0.00 0.00 0.00 57 992.9
20191113182155 24 181 5.0 12.0 0.00 0.00 0.00 57 992.8
20191113181655 24 134 5.0 14.0 0.00 0.00 0.00 57 992.9
20191113181152 24 175 4.0 14.0 0.00 0.00 0.00 56 992.8
20191113180654 24 257 4.0 10.0 0.00 0.00 0.00 56 992.8
20191113180152 24 197 4.0 10.0 0.00 0.00 0.00 56 993.0
20191113175650 24 167 4.0 9.0 0.00 0.00 0.00 56 992.9
20191113175150 25 229 4.0 12.0 0.00 0.00 0.00 56 993.0
20191113174651 24 160 5.0 13.0 0.00 0.00 0.00 56 993.0
20191113174152 24 182 6.0 13.0 0.00 0.00 0.00 56 993.0
20191113173650 24 170 7.0 16.0 0.00 0.00 0.00 56 993.3
20191113173156 24 177 7.0 16.0 0.00 0.00 0.00 56 993.4
20191113172651 23 117 6.0 16.0 0.00 0.00 0.00 56 993.4
20191113172148 23 165 7.0 16.0 0.00 0.00 0.00 56 993.6
20191113171648 23 232 8.0 14.0 0.00 0.00 0.00 57 993.5
20191113171149 23 198 8.0 19.0 0.00 0.00 0.00 57 993.6
20191113170648 23 188 8.0 19.0 0.00 0.00 0.00 57 993.8
20191113170148 23 157 8.0 15.0 0.00 0.00 0.00 57 993.9
20191113165650 23 200 7.0 20.0 0.00 0.00 0.00 56 993.8
20191113165148 23 172 8.0 20.0 0.00 0.00 0.00 57 993.7
20191113164642 23 181 6.0 15.0 0.00 0.00 0.00 56 994.0
20191113164142 23 156 5.0 12.0 0.00 0.00 0.00 56 994.1
20191113163642 23 177 6.0 15.0 0.00 0.00 0.00 57 994.0
20191113163142 23 129 7.0 15.0 0.00 0.00 0.00 56 994.5
20191113162642 23 295 6.0 14.0 0.00 0.00 0.00 56 994.5
20191113162143 23 176 6.0 14.0 0.00 0.00 0.00 56 994.2
20191113161643 22 172 5.0 14.0 0.00 0.00 0.00 56 994.1
20191113161142 22 105 5.0 14.0 0.00 0.00 0.00 57 994.3
20191113160642 22 215 6.0 15.0 0.00 0.00 0.00 58 994.3
20191113160138 21 206 6.0 15.0 0.00 0.00 0.00 58 994.5
20191113155638 21 211 5.0 14.0 0.00 0.00 0.00 58 994.5
20191113155139 21 223 6.0 15.0 0.00 0.00 0.00 59 994.5
20191113154638 21 221 6.0 15.0 0.00 0.00 0.00 59 994.6
20191113154138 21 204 6.0 13.0 0.00 0.00 0.00 59 994.7
20191113153638 20 227 6.0 14.0 0.00 0.00 0.00 59 994.7
20191113153134 20 180 6.0 14.0 0.00 0.00 0.00 59 994.9
20191113152634 20 202 5.0 16.0 0.00 0.00 0.00 59 994.8
20191113152135 20 242 6.0 16.0 0.00 0.00 0.00 58 994.5
20191113151634 20 165 6.0 15.0 0.00 0.00 0.00 58 994.4
20191113151134 20 140 6.0 15.0 0.00 0.00 0.00 59 994.5
20191113150634 20 154 6.0 18.0 0.00 0.00 0.00 58 994.5
20191113150130 20 274 5.0 19.0 0.00 0.00 0.00 58 994.5
20191113145630 20 225 5.0 19.0 0.00 0.00 0.00 58 994.6
20191113145130 20 267 6.0 19.0 0.00 0.00 0.00 58 994.4
20191113144630 20 287 7.0 19.0 0.00 0.00 0.00 58 994.5
20191113144130 20 162 5.0 14.0 0.00 0.00 0.00 59 994.7
20191113143630 20 227 6.0 13.0 0.00 0.00 0.00 59 994.7
20191113143130 20 164 7.0 15.0 0.00 0.00 0.00 59 994.8
20191113142630 19 194 7.0 17.0 0.00 0.00 0.00 59 994.8
20191113142130 19 165 6.0 17.0 0.00 0.00 0.00 59 994.9
20191113141630 19 176 5.0 14.0 0.00 0.00 0.00 60 994.9
20191113141128 19 159 5.0 14.0 0.00 0.00 0.00 59 994.9
20191113140628 19 194 6.0 14.0 0.00 0.00 0.00 59 994.9
20191113140128 19 213 5.0 14.0 0.00 0.00 0.00 59 995.1
20191113135629 19 159 5.0 11.0 0.00 0.00 0.00 59 995.1
20191113135128 19 255 5.0 11.0 0.00 0.00 0.00 59 995.1
20191113134629 19 154 5.0 11.0 0.00 0.00 0.00 60 995.0
20191113134127 18 137 5.0 11.0 0.00 0.00 0.00 60 994.9
20191113133620 18 242 5.0 11.0 0.00 0.00 0.00 60 994.9
20191113133120 18 193 5.0 11.0 0.00 0.00 0.00 60 994.9
20191113132620 18 123 6.0 16.0 0.00 0.00 0.00 60 994.8
20191113132120 18 210 6.0 16.0 0.00 0.00 0.00 59 994.8
20191113131619 18 134 6.0 12.0 0.00 0.00 0.00 60 994.7
20191113131120 18 180 5.0 16.0 0.00 0.00 0.00 60 994.6
20191113130616 18 157 5.0 16.0 0.00 0.00 0.00 60 994.7
20191113130116 18 195 6.0 14.0 0.00 0.00 0.00 60 994.6
20191113125615 18 315 6.0 16.0 0.00 0.00 0.00 59 994.5
20191113125116 18 161 6.0 16.0 0.00 0.00 0.00 60 994.5
20191113124615 18 171 5.0 15.0 0.00 0.00 0.00 59 994.5
20191113124116 18 212 6.0 15.0 0.00 0.00 0.00 60 994.4
20191113123615 18 163 7.0 18.0 0.00 0.00 0.00 60 994.5
20191113123111 18 149 7.0 18.0 0.00 0.00 0.00 59 994.6
20191113122610 18 168 6.0 13.0 0.00 0.00 0.00 60 994.6
20191113122110 18 185 7.0 14.0 0.00 0.00 0.00 59 994.8
20191113121610 18 40 7.0 15.0 0.00 0.00 0.00 59 994.7
20191113121108 18 172 6.0 15.0 0.00 0.00 0.00 59 994.7
20191113120608 18 219 5.0 15.0 0.00 0.00 0.00 60 994.9
20191113120102 18 193 5.0 15.0 0.00 0.00 0.00 59 994.8
20191113115602 18 166 5.0 13.0 0.00 0.00 0.00 59 995.0
20191113115102 18 199 6.0 13.0 0.00 0.00 0.00 59 995.0
20191113114601 17 198 6.0 13.0 0.00 0.00 0.00 59 995.2
20191113114101 17 196 6.0 13.0 0.00 0.00 0.00 59 995.1
20191113113601 17 198 7.0 14.0 0.00 0.00 0.00 58 995.2
20191113113057 17 169 6.0 14.0 0.00 0.00 0.00 58 995.5
20191113112556 17 174 7.0 17.0 0.00 0.00 0.00 58 995.4
20191113112057 17 169 8.0 17.0 0.00 0.00 0.00 58 995.4
20191113111556 17 234 7.0 14.0 0.00 0.00 0.00 58 995.5
20191113111057 17 121 6.0 14.0 0.00 0.00 0.00 58 995.4
20191113110556 17 277 5.0 14.0 0.00 0.00 0.00 58 995.4
20191113110049 17 227 6.0 15.0 0.00 0.00 0.00 58 995.5
20191113105550 17 178 7.0 15.0 0.00 0.00 0.00 58 995.6
20191113105050 17 212 6.0 18.0 0.00 0.00 0.00 57 995.7
20191113104549 17 200 6.0 18.0 0.00 0.00 0.00 58 995.6
20191113104049 17 219 7.0 17.0 0.00 0.00 0.00 57 995.6
20191113103553 17 238 7.0 16.0 0.00 0.00 0.00 57 995.5
20191113103043 17 279 6.0 14.0 0.00 0.00 0.00 57 995.5
20191113102545 17 170 6.0 13.0 0.00 0.00 0.00 58 995.8
20191113102045 17 171 6.0 14.0 0.00 0.00 0.00 58 995.6
20191113101544 17 196 6.0 14.0 0.00 0.00 0.00 58 995.8
20191113101044 17 161 6.0 14.0 0.00 0.00 0.00 59 995.9
20191113100544 16 126 7.0 14.0 0.00 0.00 0.00 59 996.0
20191113100038 16 201 6.0 13.0 0.00 0.00 0.00 59 996.0
20191113095537 16 248 6.0 16.0 0.00 0.00 0.00 59 996.3
20191113095039 16 206 7.0 16.0 0.00 0.00 0.00 60 996.2
20191113094538 16 197 7.0 16.0 0.00 0.00 0.00 60 996.2
20191113094039 15 136 5.0 15.0 0.00 0.00 0.00 61 996.3
20191113093537 15 153 5.0 13.0 0.00 0.00 0.00 61 996.3
20191113093033 15 201 7.0 13.0 0.00 0.00 0.00 61 996.5
20191113092533 15 142 6.0 11.0 0.00 0.00 0.00 61 996.7
20191113092032 15 208 6.0 13.0 0.00 0.00 0.00 61 996.9
20191113091531 15 184 6.0 13.0 0.00 0.00 0.00 61 997.0
20191113091031 15 57 6.0 12.0 0.00 0.00 0.00 61 997.2
20191113090532 15 150 6.0 15.0 0.00 0.00 0.00 60 997.4
20191113090028 15 153 5.0 15.0 0.00 0.00 0.00 60 997.5
20191113085527 15 280 5.0 11.0 0.00 0.00 0.00 60 997.8
20191113085025 15 92 5.0 12.0 0.00 0.00 0.00 60 997.9
20191113084524 15 186 5.0 12.0 0.00 0.00 0.00 60 998.1
20191113084024 15 241 5.0 11.0 0.00 0.00 0.00 60 998.4
20191113083522 15 246 5.0 10.0 0.00 0.00 0.00 60 998.4
20191113083019 15 137 5.0 11.0 0.00 0.00 0.00 60 998.4
20191113082520 15 192 5.0 11.0 0.00 0.00 0.00 60 998.8
20191113082019 15 172 4.0 11.0 0.00 0.00 0.00 60 998.8
20191113081519 14 144 4.0 11.0 0.00 0.00 0.00 60 998.8
20191113081020 14 207 5.0 12.0 0.00 0.00 0.00 60 998.7
20191113080519 14 175 5.0 12.0 0.00 0.00 0.00 60 998.8
20191113080019 14 146 5.0 10.0 0.00 0.00 0.00 60 998.9
20191113075519 14 182 5.0 12.0 0.00 0.00 0.00 60 999.0
20191113075020 14 175 5.0 12.0 0.00 0.00 0.00 60 999.1
20191113074519 14 155 4.0 11.0 0.00 0.00 0.00 60 999.3
20191113074019 14 140 4.0 11.0 0.00 0.00 0.00 60 999.5
20191113073515 14 154 5.0 11.0 0.00 0.00 0.00 60 999.5
20191113073015 13 236 4.0 11.0 0.00 0.00 0.00 59 999.7
20191113072515 13 147 4.0 11.0 0.00 0.00 0.00 59 999.9
20191113072015 13 187 5.0 11.0 0.00 0.00 0.00 59 1000.1
20191113071515 13 172 4.0 9.0 0.00 0.00 0.00 58 1000.5
20191113071016 13 130 4.0 8.0 0.00 0.00 0.00 58 1000.6
20191113070511 14 97 4.0 9.0 0.00 0.00 0.00 58 1000.6
20191113070011 14 336 4.0 10.0 0.00 0.00 0.00 58 1000.6
20191113065511 14 151 5.0 10.0 0.00 0.00 0.00 58 1000.8
20191113065011 14 127 5.0 9.0 0.00 0.00 0.00 57 1000.7
20191113064511 14 219 4.0 9.0 0.00 0.00 0.00 57 1000.6
20191113064012 14 168 4.0 9.0 0.00 0.00 0.00 57 1000.6
20191113063512 14 84 4.0 13.0 0.00 0.00 0.00 58 1000.8
20191113063012 13 199 5.0 13.0 0.00 0.00 0.00 58 1000.8
20191113062514 13 186 6.0 17.0 0.00 0.00 0.00 58 1000.7
20191113062011 13 186 6.0 17.0 0.00 0.00 0.00 57 1000.7
20191113061509 13 183 6.0 12.0 0.00 0.00 0.00 57 1000.6
20191113061009 13 200 5.0 12.0 0.00 0.00 0.00 58 1000.7
20191113060509 13 175 5.0 13.0 0.00 0.00 0.00 58 1000.9
20191113060007 13 198 5.0 13.0 0.00 0.00 0.00 58 1001.0
20191113055508 13 188 5.0 13.0 0.00 0.00 0.00 58 1001.0
20191113055007 13 180 6.0 13.0 0.00 0.00 0.00 58 1000.9
20191113054506 13 179 6.0 12.0 0.00 0.00 0.00 57 1001.0
20191113054005 13 182 5.0 14.0 0.00 0.00 0.00 57 1001.0
20191113053505 14 182 4.0 14.0 0.00 0.00 0.00 57 1001.1
20191113053004 13 127 4.0 10.0 0.00 0.00 0.00 57 1001.3
20191113052502 13 188 4.0 10.0 0.00 0.00 0.00 56 1001.2
20191113052003 14 315 4.0 10.0 0.00 0.00 0.00 56 1001.3
20191113051457 14 215 4.0 8.0 0.00 0.00 0.00 56 1001.5
20191113050958 14 144 3.0 8.0 0.00 0.00 0.00 56 1001.8
20191113050456 14 176 3.0 6.0 0.00 0.00 0.00 56 1002.0
20191113045956 14 167 3.0 7.0 0.00 0.00 0.00 55 1002.0
20191113045456 13 155 4.0 8.0 0.00 0.00 0.00 55 1001.9
20191113044956 13 193 3.0 9.0 0.00 0.00 0.00 55 1002.0
20191113044451 14 161 3.0 9.0 0.00 0.00 0.00 55 1002.3
20191113043951 14 206 4.0 9.0 0.00 0.00 0.00 55 1002.2
20191113043451 13 225 4.0 9.0 0.00 0.00 0.00 55 1002.0
20191113042949 13 202 5.0 10.0 0.00 0.00 0.00 55 1001.9
20191113042449 13 189 4.0 12.0 0.00 0.00 0.00 54 1001.9
20191113041949 13 185 4.0 12.0 0.00 0.00 0.00 54 1001.8
20191113041449 13 165 4.0 10.0 0.00 0.00 0.00 54 1001.9
20191113040947 13 213 3.0 10.0 0.00 0.00 0.00 55 1001.9
20191113040447 13 216 4.0 11.0 0.00 0.00 0.00 55 1001.8
20191113035948 13 202 4.0 11.0 0.00 0.00 0.00 55 1001.7
20191113035449 13 175 5.0 12.0 0.00 0.00 0.00 55 1001.8
20191113034948 13 230 4.0 12.0 0.00 0.00 0.00 56 1001.8
20191113034448 13 77 5.0 12.0 0.00 0.00 0.00 56 1001.7
20191113033950 13 190 5.0 12.0 0.00 0.00 0.00 55 1001.9
20191113033447 13 167 4.0 10.0 0.00 0.00 0.00 54 1002.0
20191113032948 13 190 5.0 11.0 0.00 0.00 0.00 54 1002.2
20191113032446 13 197 5.0 11.0 0.00 0.00 0.00 54 1002.1
20191113031947 13 181 4.0 9.0 0.00 0.00 0.00 55 1002.2
20191113031446 13 175 3.0 9.0 0.00 0.00 0.00 55 1002.2
20191113030946 13 184 3.0 7.0 0.00 0.00 0.00 55 1002.4
20191113030441 13 190 4.0 8.0 0.00 0.00 0.00 55 1002.4
20191113025942 13 166 4.0 9.0 0.00 0.00 0.00 54 1002.4
20191113025441 13 169 3.0 9.0 0.00 0.00 0.00 55 1002.3
20191113024941 13 94 4.0 9.0 0.00 0.00 0.00 55 1002.3
20191113024442 13 150 4.0 11.0 0.00 0.00 0.00 55 1002.5
20191113023942 13 164 5.0 11.0 0.00 0.00 0.00 55 1002.5
20191113023438 13 180 5.0 10.0 0.00 0.00 0.00 54 1002.3
20191113022937 13 217 5.0 9.0 0.00 0.00 0.00 55 1002.6
20191113022437 13 150 4.0 9.0 0.00 0.00 0.00 55 1002.4
20191113021937 13 209 5.0 10.0 0.00 0.00 0.00 55 1002.6
20191113021437 13 185 5.0 10.0 0.00 0.00 0.00 55 1002.4
20191113020938 13 133 5.0 11.0 0.00 0.00 0.00 55 1002.5
20191113020437 13 167 5.0 11.0 0.00 0.00 0.00 55 1002.8
20191113015937 13 156 5.0 10.0 0.00 0.00 0.00 54 1002.7
20191113015437 13 224 5.0 10.0 0.00 0.00 0.00 55 1002.9
20191113014937 13 174 4.0 11.0 0.00 0.00 0.00 55 1003.0
20191113014435 13 178 4.0 11.0 0.00 0.00 0.00 54 1003.2
20191113013936 13 196 4.0 9.0 0.00 0.00 0.00 55 1003.5